Home   Weather   Maintal   Past weeks

Flag for Germany Past Weather in Maintal, Hesse, Germany — Yesterday and Last 2 Weeks

Now
72 °F

Broken clouds.


Feels Like: 77 °F
Forecast: 56 / 73 °F
Wind: 18 mph from Southwest

Location: Frankfurt-M-Flughafen Airport

Current Time: Sep 28, 2016 at 5:28:04 PM

Latest Report: Sep 28, 2016 at 4:50 PM


Visibility: N/A

Pressure: 30.30 "Hg

Humidity: 53%

Dew Point: 54 °F

Location of MaintalLocation

Past Weather in Maintal — Graph

°F

Maintal Temperature Yesterday

Maximum temperature yesterday: 72 °F (at 2:20 PM)
Minimum temperature yesterday: 54 °F (at 11:50 PM)
Average temperature yesterday: 63 °F

High & Low Weather Summary for the Past Weeks

 TemperatureHumidityPressure
High91 °F (Sep 13, 4:20 PM)100% (Sep 17, 6:20 AM)30.36 "Hg (Sep 17, 6:20 AM)
Low46 °F (Sep 21, 7:20 AM)26% (Sep 13, 6:20 PM)29.83 "Hg (Sep 15, 3:50 AM)
Average63 °F69%30.08 "Hg
* Reported Sep 13 4:20 PM — Sep 28 4:20 PM, Maintal, Weather by CustomWeather, © 2016

Note: Actual official high and low records may vary slightly from our data, if they occured in-between our weather recording intervals... More about our weather records

Advertising

Maintal Weather History for the Previous 24 Hours

Scroll right to see more
 ConditionsComfort  
Time TempWeatherWind HumidityBarometerVisibility
4:20 PM
Wed, Sep 28
72 °FPartly sunny.16 mph53%30.30 "HgN/A
3:50 PM72 °FPartly sunny.16 mph53%30.30 "HgN/A
3:20 PM72 °FPartly sunny.16 mph53%30.30 "HgN/A
2:50 PM72 °FPartly sunny.18 mph53%30.30 "HgN/A
2:20 PM72 °FPartly sunny.16 mph47%30.30 "HgN/A
1:50 PM73 °FPartly sunny.16 mph41%30.30 "HgN/A
1:20 PM72 °FBroken clouds.14 mph44%30.33 "HgN/A
12:50 PM70 °FPartly sunny.14 mph46%30.33 "HgN/A
12:20 PM70 °FPartly sunny.10 mph50%30.33 "HgN/A
11:50 AM66 °FSunny.12 mph60%30.33 "Hg10 mi
11:20 AM64 °FSunny.10 mph64%30.36 "Hg10 mi
10:50 AM61 °FPartly sunny.8 mph83%30.36 "HgN/A
10:20 AM59 °FScattered clouds.9 mph88%30.36 "HgN/A
9:50 AM55 °FFog.9 mph94%30.36 "Hg3 mi
9:20 AM55 °FFog.9 mph94%30.33 "Hg2 mi
8:50 AM54 °FFog.7 mph100%30.33 "Hg1 mi
8:20 AM54 °FFog.7 mph100%30.33 "Hg2 mi
7:50 AM54 °FFog.7 mph94%30.33 "Hg1 mi
7:20 AM54 °FRain. Overcast.5 mph94%30.33 "Hg1 mi
6:50 AM50 °FPassing clouds.3 mph100%30.33 "Hg1 mi
6:20 AM52 °FPassing clouds.6 mph100%30.33 "Hg1 mi
5:50 AM50 °FFog.5 mph100%30.33 "Hg1 mi
5:20 AM52 °FFog.5 mph94%30.33 "Hg1 mi
4:50 AM54 °FFog.2 mph94%30.33 "Hg0 mi
4:20 AM52 °FFog.2 mph100%30.33 "Hg0 mi
3:50 AM52 °FFog.3 mph94%30.33 "Hg1 mi
3:20 AM52 °FClear.3 mph94%30.33 "Hg4 mi
2:20 AM52 °FCool.5 mph94%30.33 "HgN/A
1:50 AM52 °FFog.2 mph94%30.33 "Hg6 mi
1:20 AM52 °FFog.2 mph100%30.33 "HgN/A
12:50 AM54 °FFog.3 mph94%30.33 "HgN/A
12:20 AM54 °FFog.1 mph94%30.33 "HgN/A
11:50 PM
Tue, Sep 27
54 °FFog.1 mph100%30.33 "HgN/A
11:20 PM55 °FFog.2 mph94%30.33 "HgN/A
10:50 PM55 °FClear.2 mph94%30.33 "Hg10 mi
10:20 PM55 °FClear.3 mph94%30.33 "Hg10 mi
9:50 PM57 °FLight fog.2 mph94%30.33 "HgN/A
9:20 PM59 °FClear.1 mph88%30.33 "Hg10 mi
8:50 PM59 °FClear.2 mph88%30.33 "Hg10 mi
8:20 PM61 °FClear.1 mph83%30.33 "Hg10 mi
7:50 PM63 °FClear.5 mph77%30.30 "Hg10 mi
7:20 PM64 °FPassing clouds.5 mph73%30.30 "HgN/A
6:50 PM66 °FPassing clouds.5 mph73%30.30 "HgN/A
6:20 PM70 °FPassing clouds.6 mph60%30.30 "HgN/A
5:50 PM72 °FPassing clouds.5 mph57%30.30 "HgN/A
5:20 PM72 °FPassing clouds.6 mph57%30.30 "HgN/A
Weather by CustomWeather, © 2016

See weather overviewHow to use our weather pages